OPS 4682 DEB, 12102

Orbit data source: Space-Track

OPS 4682 DEB, 12102 is space debris in LEO originally from a launch on Sat, 03 Apr 1965 UTC launched from the Air Force Western Test Range (AFWTR). Debris objects in space refer to the collection of defunct objects orbiting the Earth. Examples of debris include non-operational satellites, rocket bodies, and fragments generated from explosions, collisions, or faulty payload assembly.

Loading next visibility...
Identifier
12102, 1965-027G
Orbit
LEO
Country
Flag of USUS
Related business
Manufacturer
Unknown
Mission
Spacecraft
Bus & Motor
Unknown
Mass
Unknown
Launch date (UTC)
1965-04-03 (61 years ago)
Launch vehicle
Unknown
Launch site
Air Force Western Test Range (AFWTR)
Object type
Payload
Rocket body
Debris
Shape & HBR
Unknown shape, 0.1 m
Radar Cross Section
Small (<0.1 m²)

Expand to show TLE details & history
Last TLE update: 3 days ago

TLE from 3 days ago
0 OPS 4682 DEB
1 12102U 65027G   25338.57758515  .00001020  00000-0  34240-2 0  9998
2 12102  90.2462  10.1151 0027125 134.4998  24.2594 12.98657830865470
Epoch: 2025-12-04T13:51Z
TLE epoch observation values (Epoch: 2025-12-04T13:51:43.356Z)
Latitude
21.11924°
Longitude
-91.35296°
Altitude
1,251.037 km
Speed
7.24 km/s
True Right ascension
12h 40m 50s
True Declination
21° 00' 41"
Sunlit
Object was in daylight at epoch
Visualization orbit readout
Latitude
Unknown
Longitude
Unknown
Altitude
Unknown
Speed
Unknown
Apparent Right ascension
Unknown
Apparent Declination
Unknown
Sunlit
N/A
Visualization observer readout
Local Sidereal Time
03:31:31
Azimuth
Unknown
Elevation
Unknown
Doppler factor
Unknown
Orbital elements
Apogee altitude
1,285.209 km
Perigee altitude
1,243.748 km
Semi-major axis
7,642.616 km
Eccentricity
0.00271
Inclination
90.2462°
RAAN
10.1151°
Arg. of periapsis
134.4998°
True anomaly
24.38751°
Mean anomaly
24.2594°
Eccentric anomaly
24.32341°
Mean motion
3.24848 °/min
Orbital period
110.82 mins
BSTAR
0.003424
Loading maneuver chart data...
Computing Atmospheric mass density...
Loading historical data...
Loading historical data...
Loading historical data...
Loading historical data...
Loading historical data...
Loading historical data...
Loading historical data...

Documentation

Showing up to 5 results
|